Weather in Svetlogorsk

Russia / Nizhny Novgorod Oblast'     55°11′24″N   44°00′03″E
temp.,
°C
wind,
m/s
gust,
m/s
humid.,
%
clouds,
%
prec.,
mm/h
press.,
hPa
HPBL,
m
8 march, mon
mon800:00−3sw41096100 2.1 992645
03:00−9w4109183 3.2 993236
06:00−7w6128977 0.8 996808
09:00−9wsw5109388 0.9 998465
12:00−6sw4790100 0.0 998528
15:00−6nw2490100 1.2 998540
18:00−9nw3690100 0.9 1001139
21:00−12w489477 0.9 1004160
9 march, tue
tue900:00−14w349864 0.0 100670
03:00−16w339976 0.1 100849
06:00−18wnw239998 0.0 100938
09:00−15nw249696 0.1 1011202
12:00−11nw349097 0.1 1011492
15:00−11nnw458999 0.1 1012655
18:00−13nnw3794100 0.1 1013294
21:00−18nnw379797 0.1 1015170
10 march, wed
wed1000:00−18nnw379899 0.1 1017215
03:00−20nnw379997 0.1 1018178
06:00−22nnw389898 0.1 1020280
09:00−23nnw479699 0.1 1022340
12:00−20nnw479095 0.0 1023512
15:00−18nnw478673 0.0 1024611
18:00−21nw349434 0.0 102462
21:00−23nw339841 0.0 102658
11 march, thu
thu1100:00−23wnw3510088 0.0 102681
03:00−23wnw3310094 0.1 102772
06:00−25wnw3510079 0.0 102888
09:00−20wnw489771 0.0 1028217
12:00−14wnw599292 0.0 1027396
15:00−9nw589096 0.1 1027500
18:00−12wnw379465 0.0 1027128
21:00−14wnw359632 0.0 102977
12 march, fri
fri1200:00−16wnw239819 0.0 103031
03:00−17w239819 0.0 103121
06:00−18wsw23961 0.0 103124
09:00−15sw35931 0.0 1032190
12:00−10sw36870 0.0 1031360
15:00−8ssw49820 0.0 1029667
18:00−13s510880 0.0 1028237
21:00−15ssw6138315 0.0 1027314